This is the latest recevied weather packets stored in our database for station/object KK4EQF-12. If no packets are shown the sender has not sent any weather packets the latest 10 day(s).
| Time | Temp. | Humidity | Pressure | Rain* | Wind** | Luminosity | Snow |
|---|---|---|---|---|---|---|---|
| 1778001260 | 26.11° C | 12% | 1013 hPa | 0 mm | - | - | - |
| 1778000960 | 26.11° C | 11% | 1013.2 hPa | 0 mm | - | - | - |
| 1778000660 | 26.11° C | 10% | 1013.2 hPa | 0 mm | - | - | - |
| 1778000359 | 26.67° C | 14% | 1013.2 hPa | 0 mm | - | - | - |
| 1778000059 | 26.67° C | 20% | 1013.2 hPa | 0 mm | - | - | - |
| 1777999759 | 27.22° C | 27% | 1013.2 hPa | 0 mm | - | - | - |
| 1777999459 | 27.78° C | 38% | 1013.2 hPa | 0 mm | - | - | - |
| 1777999158 | 27.22° C | 39% | 1013.3 hPa | 0 mm | - | - | - |
| 1777998858 | 27.78° C | 37% | 1013.3 hPa | 0 mm | - | - | - |
| 1777998558 | 27.78° C | 38% | 1013.3 hPa | 0 mm | - | - | - |
| 1777998257 | 27.22° C | 34% | 1013.3 hPa | 0 mm | - | - | - |
| 1777997957 | 27.22° C | 36% | 1013.3 hPa | 0 mm | - | - | - |
| 1777997657 | 27.78° C | 38% | 1013.3 hPa | 0 mm | - | - | - |
| 1777997357 | 27.78° C | 34% | 1013.2 hPa | 0 mm | - | - | - |
| 1777997056 | 27.78° C | 35% | 1013.2 hPa | 0 mm | - | - | - |
| 1777996756 | 27.22° C | 33% | 1013.2 hPa | 0 mm | - | - | - |
| 1777996456 | 27.78° C | 36% | 1013.3 hPa | 0 mm | - | - | - |
| 1777996155 | 27.22° C | 33% | 1013.3 hPa | 0 mm | - | - | - |
| 1777995855 | 27.22° C | 35% | 1013.3 hPa | 0 mm | - | - | - |
| 1777995555 | 27.22° C | 32% | 1013.4 hPa | 0 mm | - | - | - |
| 1777995255 | 27.22° C | 36% | 1013.4 hPa | 0 mm | - | - | - |
| 1777994954 | 27.22° C | 34% | 1013.4 hPa | 0 mm | - | - | - |
| 1777994654 | 26.67° C | 34% | 1013.3 hPa | 0 mm | - | - | - |
| 1777994354 | 26.67° C | 31% | 1013.3 hPa | 0 mm | - | - | - |
| 1777994053 | 26.67° C | 31% | 1013.3 hPa | 0 mm | - | - | - |
* Rain latest hour (hover to see other rain measurements)
** Current wind speed in m/s (hover to see current wind gust speed)